Location: Brede
(50.9167°N, 0.6000°E)
Time: 15:44:54
(UTC+00:00)

N. Korean satellite - Visible Passes

Search period start: 27 October 2020 00:00
Search period end: 06 November 2020 00:00
Orbit: 452 x 505 km, 97.2° (Epoch: 26 October)

Date Brightness Start Highest point End Pass type
(mag) Time Alt. Az. Time Alt. Az. Time Alt. Az.
27 Oct 7.3 05:25:09 10° NNE 05:28:32 54° E 05:31:53 10° S visible
27 Oct 9.9 17:39:32 10° SW 17:41:50 16° W 17:44:07 10° NW visible
28 Oct 8.8 04:59:19 10° NE 05:02:17 27° E 05:05:15 10° SSE visible
28 Oct 8.9 17:12:21 10° SSW 17:15:31 30° W 17:18:40 10° NNW visible
29 Oct 9.9 04:33:59 10° NE 04:35:57 14° E 04:37:54 10° SE visible
29 Oct 6.7 06:06:17 10° N 06:09:34 46° WNW 06:12:51 10° SW visible
30 Oct 6.5 05:40:01 10° NNE 05:43:28 85° E 05:46:53 10° SSW visible
30 Oct 10.3 17:55:49 10° WSW 17:56:54 11° W 17:58:00 10° WNW visible
31 Oct 7.9 05:14:01 10° NNE 05:17:16 40° E 05:20:31 10° S visible
31 Oct 9.6 17:27:49 10° SW 17:30:31 21° W 17:33:14 10° NW visible
01 Nov 9.3 04:48:19 10° NE 04:50:58 21° E 04:53:37 10° SE visible
02 Nov 10.1 04:23:34 10° ENE 04:24:34 11° E 04:25:35 10° ESE visible
02 Nov 6.4 05:54:56 10° N 05:58:20 63° WNW 06:01:43 10° SSW visible
03 Nov 7.0 05:28:46 10° NNE 05:32:10 61° E 05:35:34 10° S visible
03 Nov 9.9 17:43:32 10° SW 17:45:30 14° W 17:47:29 10° NW visible
04 Nov 8.6 05:02:50 10° NNE 05:05:55 30° E 05:08:59 10° SSE visible
04 Nov 9.1 17:16:09 10° SSW 17:19:09 26° W 17:22:08 10° NW visible
05 Nov 9.7 04:37:21 10° NE 04:39:33 16° E 04:41:46 10° SE visible
05 Nov 6.8 06:09:52 10° N 06:13:08 41° WNW 06:16:23 10° SW visible
